When you browse on this site, cookies collect data to enhance your experience and personalize the content and advertising you see.
Visit our Privacy Policy to learn more. By continuing to use the site, you agree to this use of cookies and data.
  • In United Kingdom
  • List of Countries
  • For 7 days
  • Water Temperature
  • Satellite Maps
  • Weather Map
  • Weather Widgets
  • user-avatar
    Login

    Hourly Weather Satif

    Today, 21 November, Wednesday

    Time Temperature Precipitation Wind Pressure Humidity
    00:00 +8°C° 0 mm 3 mps 669 mmHg 62%
    01:00 +8°C° 0 mm 3 mps 669 mmHg 65%
    02:00 +7°C° 0 mm 3 mps 669 mmHg 67%
    03:00 +7°C° 0 mm 3 mps 669 mmHg 69%
    04:00 +7°C° 0 mm 3 mps 669 mmHg 72%
    05:00 +7°C° 0 mm 3 mps 670 mmHg 75%
    06:00 +5°C° 0 mm 3 mps 670 mmHg 77%
    07:00 +8°C° 0 mm 3 mps 671 mmHg 73%
    08:00 +9°C° 0 mm 3 mps 672 mmHg 68%
    09:00 +11°C° 0 mm 3 mps 672 mmHg 63%
    10:00 +12°C° 0 mm 3 mps 673 mmHg 57%
    11:00 +13°C° 0 mm 4 mps 673 mmHg 52%
    12:00 +14°C° 0 mm 4 mps 673 mmHg 46%
    13:00 +14°C° 0 mm 4 mps 673 mmHg 45%
    14:00 +14°C° 0 mm 3 mps 673 mmHg 44%
    15:00 +14°C° 0 mm 3 mps 673 mmHg 43%
    16:00 +13°C° 0 mm 3 mps 673 mmHg 48%
    17:00 +13°C° 0 mm 2 mps 673 mmHg 52%
    18:00 +10°C° 0 mm 2 mps 673 mmHg 56%
    19:00 +10°C° 0 mm 2 mps 673 mmHg 57%
    20:00 +10°C° 0 mm 2 mps 673 mmHg 57%
    21:00 +10°C° 0 mm 3 mps 674 mmHg 57%
    22:00 +9°C° 0 mm 3 mps 673 mmHg 57%
    23:00 +9°C° 0 mm 3 mps 673 mmHg 57%

    Tomorrow, 22 November, Thursday

    Time Temperature Precipitation Wind Pressure Humidity
    00:00 +9°C° 0 mm 3 mps 673 mmHg 57%
    01:00 +9°C° 0 mm 3 mps 673 mmHg 57%
    02:00 +9°C° 0 mm 3 mps 673 mmHg 57%
    03:00 +9°C° 0 mm 3 mps 673 mmHg 57%
    04:00 +9°C° 0 mm 3 mps 673 mmHg 56%
    05:00 +9°C° 0 mm 3 mps 673 mmHg 56%
    06:00 +9°C° 0 mm 3 mps 673 mmHg 56%
    07:00 +10°C° 0 mm 3 mps 673 mmHg 52%
    08:00 +11°C° 0 mm 3 mps 674 mmHg 48%
    09:00 +13°C° 0 mm 3 mps 675 mmHg 44%
    10:00 +14°C° 0 mm 3 mps 675 mmHg 40%
    11:00 +15°C° 0 mm 4 mps 675 mmHg 35%
    12:00 +17°C° 0 mm 4 mps 675 mmHg 31%
    13:00 +17°C° 0 mm 4 mps 674 mmHg 32%
    14:00 +17°C° 0 mm 4 mps 674 mmHg 33%
    15:00 +17°C° 0 mm 4 mps 674 mmHg 34%
    16:00 +14°C° 0 mm 4 mps 674 mmHg 38%
    17:00 +13°C° 0 mm 3 mps 673 mmHg 42%
    18:00 +11°C° 0 mm 3 mps 673 mmHg 47%
    19:00 +11°C° 0 mm 3 mps 673 mmHg 49%
    20:00 +10°C° 0 mm 3 mps 673 mmHg 51%
    21:00 +10°C° 0 mm 3 mps 673 mmHg 52%
    22:00 +9°C° 0 mm 3 mps 673 mmHg 53%
    23:00 +9°C° 0 mm 3 mps 673 mmHg 53%

    Day after tomorrow, 23 November, Friday

    Time Temperature Precipitation Wind Pressure Humidity
    00:00 +9°C° 0 mm 3 mps 673 mmHg 54%
    01:00 +8°C° 0 mm 3 mps 673 mmHg 54%
    02:00 +8°C° 0 mm 3 mps 672 mmHg 55%
    03:00 +8°C° 0 mm 3 mps 672 mmHg 55%
    04:00 +8°C° 0 mm 3 mps 672 mmHg 55%
    05:00 +7°C° 0 mm 3 mps 672 mmHg 55%
    06:00 +7°C° 0 mm 3 mps 672 mmHg 56%
    07:00 +9°C° 0 mm 3 mps 673 mmHg 51%
    08:00 +10°C° 0 mm 4 mps 673 mmHg 46%
    09:00 +12°C° 0 mm 4 mps 674 mmHg 42%
    10:00 +13°C° 0 mm 5 mps 674 mmHg 39%
    11:00 +14°C° 0 mm 5 mps 674 mmHg 37%
    12:00 +15°C° 0 mm 5 mps 674 mmHg 35%
    13:00 +15°C° 0 mm 5 mps 674 mmHg 35%
    14:00 +15°C° 0 mm 5 mps 673 mmHg 36%
    15:00 +15°C° 0 mm 4 mps 673 mmHg 37%
    16:00 +14°C° 0 mm 4 mps 673 mmHg 41%
    17:00 +12°C° 0 mm 3 mps 672 mmHg 45%
    18:00 +12°C° 0 mm 2 mps 672 mmHg 48%
    19:00 +12°C° 0 mm 2 mps 673 mmHg 50%
    20:00 +10°C° 0 mm 2 mps 673 mmHg 51%
    21:00 +10°C° 0 mm 2 mps 673 mmHg 52%
    22:00 +10°C° 0 mm 2 mps 673 mmHg 54%
    23:00 +10°C° 0 mm 2 mps 673 mmHg 55%

    24 November, Saturday

    Time Temperature Precipitation Wind Pressure Humidity
    00:00 +9°C° 0 mm 2 mps 673 mmHg 56%
    01:00 +10°C° 0 mm 1 mps 673 mmHg 58%
    02:00 +10°C° 0 mm 1 mps 672 mmHg 60%
    03:00 +9°C° 0 mm 1 mps 672 mmHg 62%
    04:00 +9°C° 0 mm 1 mps 672 mmHg 61%
    05:00 +9°C° 0 mm 1 mps 672 mmHg 61%
    06:00 +9°C° 0 mm 1 mps 672 mmHg 60%
    07:00 +11°C° 0 mm 1 mps 673 mmHg 56%
    08:00 +12°C° 0 mm 1 mps 673 mmHg 52%
    09:00 +13°C° 0 mm 1 mps 674 mmHg 47%
    10:00 +14°C° 0 mm 1 mps 674 mmHg 45%
    11:00 +15°C° 0 mm 2 mps 673 mmHg 42%
    12:00 +16°C° 0 mm 2 mps 673 mmHg 40%
    13:00 +16°C° 0 mm 2 mps 673 mmHg 42%
    14:00 +15°C° 0 mm 2 mps 672 mmHg 45%
    15:00 +15°C° 0 mm 2 mps 672 mmHg 47%
    16:00 +14°C° 0 mm 2 mps 672 mmHg 52%
    17:00 +13°C° 0 mm 2 mps 672 mmHg 57%
    18:00 +13°C° 0 mm 2 mps 671 mmHg 62%
    19:00 +12°C° 0.2 mm 2 mps 671 mmHg 65%
    20:00 +12°C° 0.2 mm 2 mps 671 mmHg 69%
    21:00 +10°C° 0.2 mm 3 mps 671 mmHg 73%
    22:00 +10°C° 0.4 mm 2 mps 671 mmHg 76%
    23:00 +9°C° 0.4 mm 2 mps 671 mmHg 80%

    25 November, Sunday

    Time Temperature Precipitation Wind Pressure Humidity
    00:00 +10°C° 0.4 mm 1 mps 670 mmHg 83%
    01:00 +10°C° 0.6 mm 1 mps 670 mmHg 85%
    02:00 +10°C° 0.6 mm 1 mps 670 mmHg 87%
    03:00 +10°C° 0.6 mm 1 mps 669 mmHg 89%
    04:00 +9°C° 0.5 mm 1 mps 669 mmHg 89%
    05:00 +8°C° 0.5 mm 2 mps 669 mmHg 89%
    06:00 +8°C° 0.5 mm 2 mps 669 mmHg 89%
    07:00 +9°C° 0.1 mm 2 mps 670 mmHg 86%
    08:00 +9°C° 0.1 mm 2 mps 670 mmHg 84%
    09:00 +9°C° 0.1 mm 2 mps 671 mmHg 81%
    10:00 +10°C° 0 mm 2 mps 671 mmHg 73%
    11:00 +12°C° 0 mm 2 mps 671 mmHg 65%
    12:00 +12°C° 0 mm 3 mps 671 mmHg 57%
    13:00 +12°C° 0 mm 3 mps 671 mmHg 54%
    14:00 +12°C° 0 mm 3 mps 670 mmHg 51%
    15:00 +12°C° 0 mm 3 mps 670 mmHg 48%
    16:00 +12°C° 0 mm 2 mps 670 mmHg 53%
    17:00 +10°C° 0 mm 2 mps 670 mmHg 59%
    18:00 +10°C° 0 mm 1 mps 670 mmHg 65%
    19:00 +10°C° 0 mm 1 mps 671 mmHg 67%
    20:00 +9°C° 0 mm 1 mps 671 mmHg 68%
    21:00 +9°C° 0 mm 1 mps 671 mmHg 70%
    22:00 +9°C° 0 mm 1 mps 671 mmHg 69%
    23:00 +8°C° 0 mm 2 mps 671 mmHg 69%

    26 November, Monday

    Time Temperature Precipitation Wind Pressure Humidity
    00:00 +7°C° 0 mm 2 mps 671 mmHg 69%
    01:00 +7°C° 0 mm 2 mps 670 mmHg 70%
    02:00 +7°C° 0 mm 2 mps 670 mmHg 71%
    03:00 +7°C° 0 mm 2 mps 670 mmHg 72%
    04:00 +7°C° 0 mm 2 mps 670 mmHg 74%
    05:00 +7°C° 0 mm 2 mps 670 mmHg 75%
    06:00 +6°C° 0 mm 2 mps 670 mmHg 77%
    07:00 +8°C° 0 mm 2 mps 671 mmHg 72%
    08:00 +9°C° 0 mm 2 mps 672 mmHg 67%
    09:00 +12°C° 0 mm 2 mps 672 mmHg 61%
    10:00 +13°C° 0 mm 2 mps 672 mmHg 59%
    11:00 +14°C° 0 mm 2 mps 672 mmHg 56%
    12:00 +14°C° 0 mm 3 mps 672 mmHg 54%
    13:00 +13°C° 0 mm 3 mps 672 mmHg 56%
    14:00 +13°C° 0 mm 3 mps 672 mmHg 59%
    15:00 +13°C° 0 mm 3 mps 672 mmHg 61%
    16:00 +13°C° 0 mm 2 mps 672 mmHg 68%
    17:00 +12°C° 0 mm 2 mps 672 mmHg 74%
    18:00 +11°C° 0 mm 1 mps 672 mmHg 80%
    19:00 +11°C° 0 mm 1 mps 672 mmHg 82%
    20:00 +10°C° 0 mm 1 mps 672 mmHg 84%
    21:00 +10°C° 0 mm 1 mps 672 mmHg 85%
    22:00 +10°C° 0 mm 1 mps 672 mmHg 85%
    23:00 +10°C° 0 mm 1 mps 672 mmHg 85%
    Show more